Appleton, MN

5:33 AM CST on February 24, 2017 (GMT -0600)
Appleton Municipal

Weather History for KAQP - July, 2013

Change the Weather History Date:

Tuesday, July 2, 2013

  Actual Average Record
Temperature  
Mean Temperature 73 °F -  
Max Temperature 86 °F 78 °F 96 °F (2012)
Min Temperature 60 °F 58 °F 51 °F (2015)
Cooling Degree Days 8    
Growing Degree Days 23 (Base 50)    
Moisture  
Dew Point 57 °F    
Average Humidity 61    
Maximum Humidity 88    
Minimum Humidity 25    
Precipitation  
Precipitation 0.00 in - - ()
Sea Level Pressure  
Sea Level Pressure 30.12 in    
Wind  
Wind Speed 1 mph (ENE)    
Max Wind Speed 7 mph    
Max Gust Speed -    
Visibility 8 miles    
Events      
Averages and records for this station are not official NWS values.
T = Trace of Precipitation, MM = Missing Value Source: NWS Daily Summary

Daily Weather History Graph

Daily Weather History Graph

Search for Another Location

Airport or City:

Trip Planner

Search our weather history database for the weather conditions in past years. The results will help you decide how hot, cold, wet, or windy it might be!

Date:

Astronomy

Jul. 02, 2013 Rise Set
Actual Time 5:41 AM CDT 9:15 PM CDT
Civil Twilight 5:03 AM CDT 9:52 PM CDT
Nautical Twilight 4:14 AM CDT 10:41 PM CDT
Astronomical Twilight 3:08 AM CDT 11:46 PM CDT
Moon 1:52 AM CDT (7/2) 4:23 PM CDT (7/2)
Length of Visible Light 16h 48m
Length of Day
15h 34m
Waning Crescent, 26% of the Moon is Illuminated
Jul 2
Waning Crescent
Jul 8
New
Jul 15
First Quarter
Jul 22
Full
Jul 29
Last Quarter

Hourly Weather History & Observations

Time (CDT) Temp. Heat Index Dew Point Humidity Pressure Visibility Wind Dir Wind Speed Gust Speed Precip Events Conditions
12:14 AM 66.2 °F - 60.8 °F 83% 30.16 in 7.0 mi Calm Calm - N/A   Clear
12:34 AM 66.2 °F - 57.2 °F 73% 30.16 in 7.0 mi Calm Calm - N/A   Clear
12:53 AM 64.4 °F - 59.0 °F 83% 30.16 in 7.0 mi East 3.5 mph - N/A   Clear
1:13 AM 64.4 °F - 57.2 °F 77% 30.16 in 7.0 mi Calm Calm - N/A   Clear
1:33 AM 64.4 °F - 57.2 °F 77% 30.16 in 7.0 mi Calm Calm - N/A   Clear
1:53 AM 64.4 °F - 57.2 °F 77% 30.16 in 7.0 mi Calm Calm - N/A   Clear
2:13 AM 62.6 °F - 57.2 °F 82% 30.16 in 7.0 mi Calm Calm - N/A   Clear
2:33 AM 62.6 °F - 57.2 °F 82% 30.16 in 7.0 mi Calm Calm - N/A   Clear
2:53 AM 62.6 °F - 57.2 °F 82% 30.16 in 7.0 mi Calm Calm - N/A   Clear
3:13 AM 60.8 °F - 57.2 °F 88% 30.16 in 7.0 mi Calm Calm - N/A   Clear
3:33 AM 62.6 °F - 57.2 °F 82% 30.16 in 7.0 mi Calm Calm - N/A   Clear
3:53 AM 60.8 °F - 57.2 °F 88% 30.16 in 7.0 mi Calm Calm - N/A   Clear
4:13 AM 60.8 °F - 57.2 °F 88% 30.16 in 7.0 mi Calm Calm - N/A   Clear
4:34 AM 60.8 °F - 55.4 °F 82% 30.16 in 7.0 mi Calm Calm - N/A   Clear
4:53 AM 60.8 °F - 57.2 °F 88% 30.16 in 7.0 mi Calm Calm - N/A   Clear
5:14 AM 60.8 °F - 57.2 °F 88% 30.16 in 7.0 mi Calm Calm - N/A   Clear
5:33 AM 60.8 °F - 55.4 °F 82% 30.16 in 5.0 mi Calm Calm - N/A   Clear
5:53 AM 60.8 °F - 57.2 °F 88% 30.16 in 4.0 mi Calm Calm - N/A   Clear
6:13 AM 60.8 °F - 57.2 °F 88% 30.16 in 2.0 mi Calm Calm - N/A   Clear
6:33 AM 60.8 °F - 55.4 °F 82% 30.16 in 4.0 mi Calm Calm - N/A   Clear
6:53 AM 60.8 °F - 57.2 °F 88% 30.16 in 4.0 mi Calm Calm - N/A   Clear
7:13 AM 64.4 °F - 60.8 °F 88% 30.16 in 4.0 mi Calm Calm - N/A   Scattered Clouds
7:33 AM 66.2 °F - 60.8 °F 83% 30.16 in 5.0 mi ENE 3.5 mph - N/A   Haze
7:53 AM 68.0 °F - 60.8 °F 78% 30.16 in 5.0 mi Calm Calm - N/A   Haze
8:13 AM 69.8 °F - 60.8 °F 73% 30.16 in 5.0 mi SE 3.5 mph - N/A   Haze
8:33 AM 71.6 °F - 60.8 °F 69% 30.16 in 7.0 mi Calm Calm - N/A   Clear
8:54 AM 71.6 °F - 60.8 °F 69% 30.16 in 7.0 mi Calm Calm - N/A   Clear
9:13 AM 73.4 °F - 60.8 °F 65% 30.16 in 7.0 mi Calm Calm - N/A   Scattered Clouds
9:33 AM 75.2 °F - 59.0 °F 57% 30.16 in 7.0 mi Calm Calm - N/A   Clear
9:53 AM 75.2 °F - 59.0 °F 57% 30.16 in 7.0 mi Calm Calm - N/A   Clear
10:13 AM 73.4 °F - 60.8 °F 65% 30.15 in 7.0 mi Calm Calm - N/A   Scattered Clouds
10:33 AM 75.2 °F - 60.8 °F 61% 30.15 in 7.0 mi Calm Calm - N/A   Scattered Clouds
10:53 AM 78.8 °F - 59.0 °F 51% 30.15 in 7.0 mi Calm Calm - N/A   Clear
11:14 AM 78.8 °F - 55.4 °F 44% 30.15 in 7.0 mi ENE 3.5 mph - N/A   Clear
11:34 AM 80.6 °F 80.5 °F 55.4 °F 42% 30.14 in 7.0 mi NE 4.6 mph - N/A   Clear
11:54 AM 80.6 °F 80.5 °F 55.4 °F 42% 30.14 in 7.0 mi North 3.5 mph - N/A   Clear
12:13 PM 80.6 °F 80.5 °F 55.4 °F 42% 30.14 in 7.0 mi Calm Calm - N/A   Clear
12:33 PM 82.4 °F 81.4 °F 53.6 °F 37% 30.14 in 7.0 mi Calm Calm - N/A   Clear
12:54 PM 82.4 °F - 51.8 °F 35% 30.14 in 10.0 mi North 5.8 mph - N/A   Scattered Clouds
1:13 PM 84.2 °F 82.8 °F 53.6 °F 35% 30.13 in 7.0 mi Calm Calm - N/A   Clear
1:33 PM 84.2 °F - 51.8 °F 33% 30.12 in 10.0 mi East 3.5 mph - N/A   Clear
1:53 PM 84.2 °F - 48.2 °F 29% 30.12 in 10.0 mi NNE 4.6 mph - N/A   Scattered Clouds
2:14 PM 84.2 °F - 48.2 °F 29% 30.11 in 7.0 mi NE 3.5 mph - N/A   Clear
2:33 PM 84.2 °F - 48.2 °F 29% 30.11 in 10.0 mi North 3.5 mph - N/A   Clear
2:53 PM 84.2 °F - 51.8 °F 33% 30.11 in 10.0 mi East 4.6 mph - N/A   Clear
3:13 PM 82.4 °F - 51.8 °F 35% 30.11 in 10.0 mi East 3.5 mph - N/A   Scattered Clouds
3:34 PM 84.2 °F - 51.8 °F 33% 30.10 in 10.0 mi Calm Calm - N/A   Scattered Clouds
3:53 PM 84.2 °F - 48.2 °F 29% 30.09 in 7.0 mi Calm Calm - N/A   Clear
4:13 PM 86.0 °F - 51.8 °F 31% 30.09 in 10.0 mi East 3.5 mph - N/A   Scattered Clouds
4:34 PM 86.0 °F - 48.2 °F 27% 30.08 in 10.0 mi Calm Calm - N/A   Scattered Clouds
4:53 PM 86.0 °F - 48.2 °F 27% 30.08 in 10.0 mi East 3.5 mph - N/A   Clear
5:13 PM 86.0 °F - 48.2 °F 27% 30.07 in 10.0 mi West 4.6 mph - N/A   Clear
5:34 PM 86.0 °F - 46.4 °F 25% 30.06 in 10.0 mi NE 4.6 mph - N/A   Clear
5:53 PM 86.0 °F - 48.2 °F 27% 30.06 in 10.0 mi NE 6.9 mph - N/A   Clear
6:15 PM 82.4 °F 81.4 °F 53.6 °F 37% 30.06 in 10.0 mi ENE 4.6 mph - N/A   Scattered Clouds
6:33 PM 84.2 °F 82.8 °F 53.6 °F 35% 30.06 in 10.0 mi NE 5.8 mph - N/A   Clear
6:53 PM 82.4 °F 81.4 °F 53.6 °F 37% 30.06 in 10.0 mi East 5.8 mph - N/A   Clear
7:13 PM 82.4 °F 81.7 °F 55.4 °F 39% 30.06 in 10.0 mi East 5.8 mph - N/A   Clear
7:34 PM 82.4 °F 82.0 °F 57.2 °F 42% 30.05 in 10.0 mi ESE 3.5 mph - N/A   Clear
7:53 PM 80.6 °F 81.1 °F 59.0 °F 48% 30.05 in 10.0 mi ESE 3.5 mph - N/A   Clear
8:13 PM 78.8 °F - 60.8 °F 54% 30.05 in 10.0 mi Calm Calm - N/A   Clear
8:33 PM 78.8 °F - 59.0 °F 51% 30.05 in 10.0 mi Calm Calm - N/A   Clear
8:53 PM 75.2 °F - 62.6 °F 65% 30.05 in 10.0 mi Calm Calm - N/A   Clear
9:13 PM 73.4 °F - 62.6 °F 69% 30.06 in 10.0 mi Calm Calm - N/A   Clear
9:34 PM 71.6 °F - 62.6 °F 73% 30.06 in 10.0 mi Calm Calm - N/A   Clear
9:53 PM 71.6 °F - 62.6 °F 73% 30.06 in 10.0 mi Calm Calm - N/A   Scattered Clouds
10:13 PM 69.8 °F - 62.6 °F 78% 30.07 in 10.0 mi Calm Calm - N/A   Clear
10:33 PM 69.8 °F - 62.6 °F 78% 30.07 in 7.0 mi ENE 3.5 mph - N/A   Clear
10:53 PM 68.0 °F - 62.6 °F 83% 30.07 in 7.0 mi East 3.5 mph - N/A   Clear
11:15 PM 66.2 °F - 60.8 °F 83% 30.06 in 10.0 mi Calm Calm - N/A   Clear
11:34 PM 66.2 °F - 60.8 °F 83% 30.06 in 10.0 mi Calm Calm - N/A   Clear
11:54 PM 68.0 °F - 60.8 °F 78% 30.06 in 10.0 mi Calm Calm - N/A   Clear